Date String (YYYY-MM-DD hh:mm:ss) UTC,Instrument flags,Ambient pressure (hPa),Sample flow (lpm),Bypass flow (lpm),Sample temperature (°C),Ambient temperature (°C),ASC tube jacket temperature (°C),LED temperature (°C),Box temperature (°C),Sample RH (%),Span deviation,Mass concentration (μg/m³),Mass concentration (μg/m³),Mass concentration (μg/m³)
DateTimeUTC,F1_M11,P_M11,Q1_M11,Q2_M11,T1_M11,T2_M11,T3_M11,T4_M11,T5_M11,U1_M11,ZSPAN_M11,X0_M11,X2_M11,X1_M11
2021-11-02 02:00:00,,0834.0,5.00,0.00,23.1,22.3,00.0,32.1,24.9,20.5,0000.0,0009.46,0004.35,0003.84
2021-11-02 02:01:00,,0833.9,5.01,0.00,23.1,22.3,00.0,32.1,24.9,20.5,0000.0,0009.47,0004.35,0003.84
2021-11-02 02:02:00,,0833.9,5.00,0.00,23.1,22.3,00.0,32.1,24.9,20.5,0000.0,0009.26,0004.34,0003.83
2021-11-02 02:03:00,,0833.9,5.00,0.00,23.1,22.3,00.0,32.1,24.9,20.5,0000.0,0008.94,0004.34,0003.83
2021-11-02 02:04:00,,0833.9,5.01,0.00,23.1,22.3,00.0,32.1,24.9,20.6,0000.0,0008.95,0004.35,0003.83
2021-11-02 02:05:00,,0833.8,4.99,0.00,23.0,22.3,00.0,32.1,24.9,20.6,0000.0,0009.08,0004.36,0003.83
2021-11-02 02:06:00,,0833.8,5.01,0.00,23.0,22.3,00.0,32.1,24.9,20.6,0000.0,0009.14,0004.36,0003.82
2021-11-02 02:07:00,,0833.7,4.99,0.00,23.0,22.3,00.0,32.1,24.9,20.6,0000.0,0008.92,0004.37,0003.82
2021-11-02 02:08:00,,0833.7,5.01,0.00,23.0,22.3,00.0,32.1,24.8,20.6,0000.0,0008.92,0004.36,0003.82
2021-11-02 02:09:00,,0833.7,5.00,0.00,23.0,22.3,00.0,32.1,24.8,20.6,0000.0,0009.67,0004.40,0003.82
2021-11-02 02:10:00,,0833.7,5.00,0.00,23.0,22.3,00.0,32.1,24.8,20.7,0000.0,0010.17,0004.44,0003.82
2021-11-02 02:11:00,,0833.7,5.00,0.00,23.0,22.3,00.0,32.1,24.8,20.7,0000.0,0009.94,0004.47,0003.83
2021-11-02 02:12:00,,0833.7,5.01,0.00,23.0,22.3,00.0,32.1,24.9,20.6,0000.0,0010.11,0004.45,0003.82
2021-11-02 02:13:00,,0833.8,4.99,0.00,23.0,22.3,00.0,32.1,24.9,20.6,0000.0,0010.73,0004.45,0003.83
2021-11-02 02:14:00,,0833.8,5.01,0.00,23.0,22.3,00.0,32.1,24.8,20.6,0000.0,0010.62,0004.41,0003.82
2021-11-02 02:15:00,,0833.7,4.99,0.00,23.0,22.3,00.0,32.1,24.8,20.6,0000.0,0010.48,0004.35,0003.81
2021-11-02 02:16:00,,0833.7,5.02,0.00,23.0,22.3,00.0,32.1,24.8,20.6,0000.0,0010.35,0004.31,0003.80
2021-11-02 02:17:00,,0833.7,4.99,0.00,23.0,22.3,00.0,32.1,24.9,20.6,0000.0,0010.34,0004.31,0003.80
2021-11-02 02:18:00,,0833.7,5.01,0.00,23.0,22.3,00.0,32.1,24.9,20.6,0000.0,0010.30,0004.32,0003.80
2021-11-02 02:19:00,,0833.7,5.00,0.00,23.0,22.3,00.0,32.1,24.9,20.6,0000.0,0010.68,0004.31,0003.81
2021-11-02 02:20:00,,0833.7,5.00,0.00,23.0,22.3,00.0,32.1,24.9,20.6,0000.0,0010.28,0004.29,0003.81
2021-11-02 02:21:00,,0833.7,4.99,0.00,23.0,22.3,00.0,32.1,24.9,20.6,0000.0,0009.14,0004.24,0003.81
2021-11-02 02:22:00,,0833.7,5.01,0.00,23.0,22.3,00.0,32.1,24.9,20.7,0000.0,0009.32,0004.23,0003.80
2021-11-02 02:23:00,,0833.7,4.99,0.00,23.0,22.3,00.0,32.1,24.9,20.7,0000.0,0010.05,0004.25,0003.80
2021-11-02 02:24:00,,0833.7,5.01,0.00,23.0,22.3,00.0,32.1,24.9,20.6,0000.0,0009.37,0004.26,0003.80
2021-11-02 02:25:00,,0833.7,5.00,0.00,23.0,22.3,00.0,32.1,24.9,20.6,0000.0,0009.42,0004.28,0003.81
2021-11-02 02:26:00,,0833.7,4.99,0.00,23.0,22.2,00.0,32.1,24.9,20.6,0000.0,0009.44,0004.30,0003.83
2021-11-02 02:27:00,,0833.7,5.02,0.00,23.0,22.2,00.0,32.1,24.8,20.6,0000.0,0009.57,0004.34,0003.84
2021-11-02 02:28:00,,0833.6,4.99,0.00,23.0,22.2,00.0,32.0,24.8,20.6,0000.0,0009.54,0004.36,0003.84
2021-11-02 02:29:00,,0833.6,5.00,0.00,23.0,22.2,00.0,32.0,24.8,20.6,0000.0,0009.53,0004.35,0003.84
2021-11-02 02:30:00,,0833.6,5.01,0.00,23.0,22.2,00.0,32.0,24.8,20.6,0000.0,0009.10,0004.35,0003.83
2021-11-02 02:31:00,,0833.6,4.99,0.00,23.0,22.2,00.0,32.0,24.8,20.7,0000.0,0008.90,0004.37,0003.83
2021-11-02 02:32:00,,0833.6,5.00,0.00,23.0,22.2,00.0,32.0,24.8,20.6,0000.0,0008.88,0004.38,0003.84
2021-11-02 02:33:00,,0833.7,4.99,0.00,23.0,22.2,00.0,32.0,24.8,20.6,0000.0,0009.11,0004.40,0003.86
2021-11-02 02:34:00,,0833.7,5.01,0.00,23.0,22.2,00.0,32.0,24.8,20.6,0000.0,0008.39,0004.40,0003.88
2021-11-02 02:35:00,,0833.7,4.99,0.00,22.9,22.1,00.0,32.0,24.8,20.6,0000.0,0008.46,0004.43,0003.90
2021-11-02 02:36:00,,0833.7,5.01,0.00,22.9,22.1,00.0,32.0,24.7,20.6,0000.0,0008.88,0004.44,0003.92
2021-11-02 02:37:00,,0833.7,4.99,0.00,22.9,22.1,00.0,32.0,24.7,20.6,0000.0,0008.96,0004.46,0003.95
2021-11-02 02:38:00,,0833.7,5.01,0.00,22.9,22.1,00.0,32.0,24.7,20.6,0000.0,0008.92,0004.48,0003.99
2021-11-02 02:39:00,,0833.7,5.00,0.00,22.9,22.0,00.0,32.0,24.6,20.6,0000.0,0008.97,0004.49,0004.03
2021-11-02 02:40:00,,0833.7,5.02,0.00,22.9,22.0,00.0,32.0,24.6,20.6,0000.0,0008.96,0004.52,0004.08
2021-11-02 02:41:00,,0833.7,4.99,0.00,22.8,22.0,00.0,32.0,24.6,20.6,0000.0,0008.98,0004.57,0004.13
2021-11-02 02:42:00,,0833.7,4.99,0.00,22.8,21.9,00.0,32.0,24.6,20.6,0000.0,0009.29,0004.65,0004.20
2021-11-02 02:43:00,,0833.7,5.01,0.00,22.8,22.0,00.0,31.9,24.6,20.7,0000.0,0009.61,0004.74,0004.27
2021-11-02 02:44:00,,0833.7,4.99,0.00,22.8,22.0,00.0,31.9,24.6,20.7,0000.0,0009.15,0004.82,0004.33
2021-11-02 02:45:00,,0833.7,5.01,0.00,22.8,22.0,00.0,31.9,24.6,20.7,0000.0,0009.41,0004.93,0004.43
2021-11-02 02:46:00,,0833.7,4.99,0.00,22.8,22.1,00.0,31.9,24.6,20.7,0000.0,0010.35,0005.00,0004.51
2021-11-02 02:47:00,,0833.7,5.01,0.00,22.8,22.1,00.0,31.9,24.6,20.7,0000.0,0010.11,0005.07,0004.57
2021-11-02 02:48:00,,0833.7,4.99,0.00,22.8,22.1,00.0,31.9,24.7,20.7,0000.0,0010.14,0005.13,0004.62
2021-11-02 02:49:00,,0833.7,5.01,0.00,22.9,22.2,00.0,31.9,24.7,20.7,0000.0,0010.16,0005.14,0004.64
2021-11-02 02:50:00,,0833.7,5.00,0.00,22.9,22.2,00.0,31.9,24.7,20.7,0000.0,0010.28,0005.15,0004.66
2021-11-02 02:51:00,,0833.7,5.01,0.00,22.9,22.2,00.0,31.9,24.7,20.7,0000.0,0010.38,0005.18,0004.71
2021-11-02 02:52:00,,0833.7,4.99,0.00,22.8,22.1,00.0,31.9,24.6,20.7,0000.0,0010.83,0005.24,0004.76
2021-11-02 02:53:00,,0833.7,5.01,0.00,22.8,22.1,00.0,31.9,24.6,20.7,0000.0,0010.84,0005.27,0004.80
2021-11-02 02:54:00,,0833.7,5.00,0.00,22.8,22.1,00.0,31.9,24.6,20.7,0000.0,0010.72,0005.29,0004.83
2021-11-02 02:55:00,,0833.7,4.99,0.00,22.8,22.1,00.0,31.9,24.6,20.7,0000.0,0010.62,0005.34,0004.90
2021-11-02 02:56:00,,0833.7,5.00,0.00,22.8,22.1,00.0,31.9,24.7,20.7,0000.0,0010.55,0005.33,0004.92
2021-11-02 02:57:00,,0833.7,5.01,0.00,22.8,22.1,00.0,31.9,24.6,20.6,0000.0,0009.53,0005.31,0004.91
2021-11-02 02:58:00,,0833.7,4.99,0.00,22.8,22.1,00.0,31.9,24.6,20.7,0000.0,0009.60,0005.33,0004.94
2021-11-02 02:59:00,,0833.7,5.01,0.00,22.8,22.0,00.0,31.9,24.6,20.7,0000.0,0009.67,0005.40,0005.00
